Milwaukee, WI

4:54 PM CDT on July 20, 2017 (GMT -0500)
Gen Mitchell International

Weather History for KMKE - February, 2013

Change the Weather History Date:

Wednesday, February 6, 2013

  Actual Average Record
Temperature  
Mean Temperature 20 °F 24 °F  
Max Temperature 35 °F 30 °F 53 °F (1925)
Min Temperature 5 °F 17 °F -14 °F (1982)
Degree Days  
Heating Degree Days 45 41  
Month to date heating degree days 309 250  
Since 1 July heating degree days 3894 4135  
Cooling Degree Days 0 0  
Month to date cooling degree days 0 0  
Year to date cooling degree days 0 0  
Moisture  
Dew Point 17 °F    
Average Humidity 75    
Maximum Humidity 92    
Minimum Humidity 58    
Precipitation  
Precipitation T in 0.05 in 0.81 in (1895)
Month to date precipitation 0.27 0.32  
Year to date precipitation 3.44 2.08  
Snow  
Snow 0.00 in 0.40 in 11.60 in (2008)
Month to date snowfall 4.3 2.3  
Since 1 July snowfall 15.7 30.3  
Snow Depth 3.00 in    
Sea Level Pressure  
Sea Level Pressure 30.19 in    
Wind  
Wind Speed 4 mph (SSW)    
Max Wind Speed 17 mph    
Max Gust Speed 20 mph    
Visibility 8 miles    
Events      
T = Trace of Precipitation, MM = Missing Value Source: NWS Daily Summary

Daily Weather History Graph

Daily Weather History Graph

Search for Another Location

Airport or City:

Trip Planner

Search our weather history database for the weather conditions in past years. The results will help you decide how hot, cold, wet, or windy it might be!

Date:

Astronomy

Feb. 06, 2013 Rise Set
Actual Time 7:00 AM CST 5:11 PM CST
Civil Twilight 6:30 AM CST 5:41 PM CST
Nautical Twilight 5:57 AM CST 6:14 PM CST
Astronomical Twilight 5:24 AM CST 6:47 PM CST
Moon 3:46 AM CST (2/6) 1:26 PM CST (2/6)
Length of Visible Light 11h 10m
Length of Day
10h 10m
Waning Crescent, 17% of the Moon is Illuminated
Feb 6
Waning Crescent
Feb 10
New
Feb 17
First Quarter
Feb 25
Full
Mar 4
Last Quarter

Hourly Weather History & Observations

Time (CST) Temp. Windchill Dew Point Humidity Pressure Visibility Wind Dir Wind Speed Gust Speed Precip Events Conditions
12:52 AM 21.9 °F - 12.0 °F 66% 30.13 in 10.0 mi Calm Calm - N/A   Scattered Clouds
1:52 AM 18.0 °F 12.7 °F 10.9 °F 74% 30.16 in 10.0 mi WNW 3.5 mph - N/A   Partly Cloudy
2:52 AM 12.9 °F - 10.0 °F 88% 30.17 in 10.0 mi Calm Calm - N/A   Partly Cloudy
3:52 AM 12.9 °F - 9.0 °F 84% 30.18 in 10.0 mi Calm Calm - N/A   Clear
4:52 AM 12.0 °F 5.9 °F 9.0 °F 88% 30.19 in 10.0 mi WNW 3.5 mph - N/A   Scattered Clouds
5:52 AM 9.0 °F - 6.1 °F 88% 30.20 in 8.0 mi Calm Calm - N/A   Partly Cloudy
6:52 AM 6.8 °F - 1.4 °F 79% 30.17 in 6.0 mi Calm Calm - N/A   Partly Cloudy
7:52 AM 9.0 °F - 7.0 °F 92% 30.22 in 6.0 mi Calm Calm - N/A   Partly Cloudy
8:52 AM 16.0 °F - 12.0 °F 84% 30.25 in 6.0 mi Calm Calm - N/A   Partly Cloudy
9:52 AM 21.9 °F 14.5 °F 14.0 °F 72% 30.25 in 9.0 mi SSW 5.8 mph - N/A   Partly Cloudy
10:52 AM 28.9 °F 21.9 °F 16.0 °F 58% 30.26 in 9.0 mi South 6.9 mph - N/A   Mostly Cloudy
11:52 AM 27.0 °F 20.5 °F 17.1 °F 66% 30.24 in 10.0 mi SSW 5.8 mph - N/A   Scattered Clouds
12:52 PM 28.9 °F 21.1 °F 19.0 °F 67% 30.22 in 9.0 mi SSW 8.1 mph - N/A   Scattered Clouds
1:52 PM 30.0 °F 21.1 °F 19.0 °F 64% 30.22 in 8.0 mi SW 10.4 mph - N/A   Scattered Clouds
2:52 PM 30.9 °F 25.2 °F 19.9 °F 64% 30.21 in 8.0 mi SW 5.8 mph - N/A   Mostly Cloudy
3:52 PM 30.9 °F - 19.9 °F 64% 30.20 in 7.0 mi Calm Calm - N/A   Overcast
4:52 PM 32.0 °F 28.7 °F 21.0 °F 64% 30.20 in 7.0 mi South 3.5 mph - N/A   Mostly Cloudy
5:52 PM 30.9 °F 24.3 °F 24.1 °F 76% 30.18 in 7.0 mi SSE 6.9 mph - N/A   Mostly Cloudy
6:52 PM 30.9 °F 24.3 °F 24.1 °F 76% 30.16 in 6.0 mi South 6.9 mph - N/A   Haze
7:52 PM 32.0 °F 26.4 °F 26.1 °F 79% 30.15 in 6.0 mi SSE 5.8 mph - N/A   Haze
8:52 PM 32.0 °F - 27.0 °F 82% 30.16 in 5.0 mi Calm Calm - N/A   Haze
9:52 PM 34.0 °F 28.8 °F 28.0 °F 79% 30.13 in 6.0 mi South 5.8 mph - N/A   Haze
10:52 PM 33.8 °F 25.8 °F 28.4 °F 81% 30.09 in 5.0 mi SSE 10.4 mph - N/A   Haze
11:52 PM 34.0 °F 23.4 °F 28.0 °F 79% 30.12 in 6.0 mi SSE 17.3 mph - 0.00 in   Haze